Time,TemperatureF,DewpointF,PressureIn,WindDirection,WindDirectionDegrees,WindSpeedMPH,WindSpeedGustMPH,Humidity,HourlyPrecipIn,Conditions,Clouds,dailyrainin,SoftwareType,DateUTC
2014-08-02 00:01:00,66.1,64.6,30.24,SE,125,0.0,0.0,95,0.00,,,0.00,Wunderground v.1.15,2014-08-02 04:01:00,
2014-08-02 00:03:00,66.1,64.6,30.23,ESE,117,0.0,0.0,95,0.00,,,0.00,Wunderground v.1.15,2014-08-02 04:03:00,
2014-08-02 00:07:00,66.0,64.5,30.23,ESE,117,0.0,0.0,95,0.00,,,0.00,Wunderground v.1.15,2014-08-02 04:07:00,
2014-08-02 00:09:00,66.0,64.5,30.23,ESE,117,0.0,0.0,95,0.00,,,0.00,Wunderground v.1.15,2014-08-02 04:09:00,
2014-08-02 00:11:00,66.0,64.5,30.23,ESE,117,0.0,0.0,95,0.00,,,0.00,Wunderground v.1.15,2014-08-02 04:11:00,
2014-08-02 00:12:00,66.0,64.5,30.23,ESE,117,0.0,0.0,95,0.00,,,0.00,Wunderground v.1.15,2014-08-02 04:12:00,
2014-08-02 00:13:00,66.0,64.5,30.23,ESE,117,0.0,0.0,95,0.00,,,0.00,Wunderground v.1.15,2014-08-02 04:13:00,
2014-08-02 00:14:00,66.0,64.5,30.23,ESE,117,0.0,0.0,95,0.00,,,0.00,Wunderground v.1.15,2014-08-02 04:14:00,
2014-08-02 00:17:00,66.0,64.8,30.23,ESE,117,0.0,0.0,96,0.00,,,0.00,Wunderground v.1.15,2014-08-02 04:17:00,
2014-08-02 00:19:00,65.9,64.7,30.23,SSW,200,1.0,1.0,96,0.00,,,0.00,Wunderground v.1.15,2014-08-02 04:19:00,
2014-08-02 00:20:00,65.9,64.7,30.23,SSW,200,0.0,1.0,96,0.00,,,0.00,Wunderground v.1.15,2014-08-02 04:20:00,
2014-08-02 00:24:00,65.9,64.4,30.23,SSW,200,0.0,1.0,95,0.00,,,0.00,Wunderground v.1.15,2014-08-02 04:24:00,
2014-08-02 00:25:00,65.9,64.4,30.23,SSW,200,0.0,1.0,95,0.00,,,0.00,Wunderground v.1.15,2014-08-02 04:25:00,
2014-08-02 00:26:00,65.9,64.4,30.23,SSW,200,0.0,1.0,95,0.00,,,0.00,Wunderground v.1.15,2014-08-02 04:26:00,
2014-08-02 00:27:00,65.8,64.6,30.24,SSW,200,0.0,1.0,96,0.00,,,0.00,Wunderground v.1.15,2014-08-02 04:27:00,
2014-08-02 00:30:00,65.7,64.5,30.23,SSW,200,0.0,0.0,96,0.00,,,0.00,Wunderground v.1.15,2014-08-02 04:30:00,
2014-08-02 00:33:00,65.7,64.5,30.23,SSW,201,0.0,0.0,96,0.00,,,0.00,Wunderground v.1.15,2014-08-02 04:33:00,
2014-08-02 00:36:00,65.6,64.4,30.23,SSW,195,0.0,1.0,96,0.00,,,0.00,Wunderground v.1.15,2014-08-02 04:36:00,
2014-08-02 00:37:00,65.6,64.4,30.23,SSW,195,0.0,1.0,96,0.00,,,0.00,Wunderground v.1.15,2014-08-02 04:37:00,
2014-08-02 00:39:00,65.6,64.4,30.23,SSW,195,0.0,1.0,96,0.00,,,0.00,Wunderground v.1.15,2014-08-02 04:39:00,
2014-08-02 00:40:00,65.5,64.3,30.23,SSW,195,0.0,0.0,96,0.00,,,0.00,Wunderground v.1.15,2014-08-02 04:40:00,
2014-08-02 00:42:00,65.5,64.3,30.23,SSW,195,0.0,0.0,96,0.00,,,0.00,Wunderground v.1.15,2014-08-02 04:42:00,
2014-08-02 00:46:00,65.5,64.3,30.23,SW,214,0.0,0.0,96,0.00,,,0.00,Wunderground v.1.15,2014-08-02 04:46:00,
2014-08-02 00:47:00,65.5,64.3,30.23,SW,214,0.0,0.0,96,0.00,,,0.00,Wunderground v.1.15,2014-08-02 04:47:00,
2014-08-02 00:48:00,65.5,64.3,30.23,SW,214,1.0,1.0,96,0.00,,,0.00,Wunderground v.1.15,2014-08-02 04:48:00,
2014-08-02 00:51:00,65.4,64.2,30.23,SW,218,0.0,1.0,96,0.00,,,0.00,Wunderground v.1.15,2014-08-02 04:51:00,
2014-08-02 00:52:00,65.4,64.2,30.23,SW,218,0.0,1.0,96,0.00,,,0.00,Wunderground v.1.15,2014-08-02 04:52:00,
2014-08-02 00:53:00,65.4,64.2,30.23,SW,218,0.0,1.0,96,0.00,,,0.00,Wunderground v.1.15,2014-08-02 04:53:00,
2014-08-02 00:59:00,65.4,64.2,30.23,SW,222,0.0,1.0,96,0.00,,,0.00,Wunderground v.1.15,2014-08-02 04:59:00,
2014-08-02 01:02:00,65.4,64.2,30.23,SW,218,0.0,1.0,96,0.00,,,0.00,Wunderground v.1.15,2014-08-02 05:02:00,
2014-08-02 01:03:00,65.4,64.2,30.23,SW,218,0.0,1.0,96,0.00,,,0.00,Wunderground v.1.15,2014-08-02 05:03:00,
2014-08-02 01:06:00,65.4,64.2,30.23,SW,218,0.0,1.0,96,0.00,,,0.00,Wunderground v.1.15,2014-08-02 05:06:00,
2014-08-02 01:07:00,65.4,64.2,30.23,SW,218,0.0,1.0,96,0.00,,,0.00,Wunderground v.1.15,2014-08-02 05:07:00,
2014-08-02 01:08:00,65.5,64.3,30.23,SE,131,0.0,1.0,96,0.00,,,0.00,Wunderground v.1.15,2014-08-02 05:08:00,
2014-08-02 01:11:00,65.5,64.3,30.23,SSW,205,1.0,1.0,96,0.00,,,0.00,Wunderground v.1.15,2014-08-02 05:11:00,
2014-08-02 01:12:00,65.5,64.3,30.23,SSW,205,0.0,1.0,96,0.00,,,0.00,Wunderground v.1.15,2014-08-02 05:12:00,
2014-08-02 01:13:00,65.4,64.2,30.23,SSW,206,0.0,1.0,96,0.00,,,0.00,Wunderground v.1.15,2014-08-02 05:13:00,
2014-08-02 01:15:00,65.4,64.2,30.23,SSW,212,0.0,2.0,96,0.00,,,0.00,Wunderground v.1.15,2014-08-02 05:15:00,
2014-08-02 01:20:00,65.5,64.0,30.23,SSW,193,0.0,2.0,95,0.00,,,0.00,Wunderground v.1.15,2014-08-02 05:20:00,
2014-08-02 01:21:00,65.5,64.0,30.23,SSE,159,0.0,0.0,95,0.00,,,0.00,Wunderground v.1.15,2014-08-02 05:21:00,
2014-08-02 01:26:00,65.6,64.1,30.23,SSW,198,0.0,0.0,95,0.00,,,0.00,Wunderground v.1.15,2014-08-02 05:26:00,
2014-08-02 01:27:00,65.6,64.1,30.23,SSW,198,0.0,0.0,95,0.00,,,0.00,Wunderground v.1.15,2014-08-02 05:27:00,
2014-08-02 01:28:00,65.6,64.1,30.23,SSW,198,0.0,0.0,95,0.00,,,0.00,Wunderground v.1.15,2014-08-02 05:28:00,
2014-08-02 01:30:00,65.6,64.1,30.22,SSW,207,0.0,0.0,95,0.00,,,0.00,Wunderground v.1.15,2014-08-02 05:30:00,
2014-08-02 01:33:00,65.6,64.1,30.22,SSW,207,0.0,0.0,95,0.00,,,0.00,Wunderground v.1.15,2014-08-02 05:33:00,
2014-08-02 01:34:00,65.6,64.1,30.22,SW,221,0.0,0.0,95,0.00,,,0.00,Wunderground v.1.15,2014-08-02 05:34:00,
2014-08-02 01:37:00,65.6,64.1,30.22,SW,221,0.0,0.0,95,0.00,,,0.00,Wunderground v.1.15,2014-08-02 05:37:00,
2014-08-02 01:38:00,65.6,64.1,30.22,SW,221,0.0,0.0,95,0.00,,,0.00,Wunderground v.1.15,2014-08-02 05:38:00,
2014-08-02 01:39:00,65.6,64.1,30.22,SW,221,0.0,0.0,95,0.00,,,0.00,Wunderground v.1.15,2014-08-02 05:39:00,
2014-08-02 01:43:00,65.6,63.8,30.22,SSE,162,0.0,1.0,94,0.00,,,0.00,Wunderground v.1.15,2014-08-02 05:43:00,
2014-08-02 01:44:00,65.6,63.8,30.22,SSE,162,0.0,1.0,94,0.00,,,0.00,Wunderground v.1.15,2014-08-02 05:44:00,
2014-08-02 01:45:00,65.6,63.8,30.22,SSE,162,0.0,1.0,94,0.00,,,0.00,Wunderground v.1.15,2014-08-02 05:45:00,
2014-08-02 01:47:00,65.6,63.8,30.22,SSE,162,0.0,1.0,94,0.00,,,0.00,Wunderground v.1.15,2014-08-02 05:47:00,
2014-08-02 01:48:00,65.7,63.9,30.22,SW,221,0.0,1.0,94,0.00,,,0.00,Wunderground v.1.15,2014-08-02 05:48:00,
2014-08-02 01:49:00,65.7,63.9,30.22,SW,221,0.0,1.0,94,0.00,,,0.00,Wunderground v.1.15,2014-08-02 05:49:00,
2014-08-02 01:51:00,65.7,63.9,30.22,SW,221,0.0,0.0,94,0.00,,,0.00,Wunderground v.1.15,2014-08-02 05:51:00,
2014-08-02 01:55:00,65.7,63.9,30.22,SW,221,0.0,3.0,94,0.00,,,0.00,Wunderground v.1.15,2014-08-02 05:55:00,
2014-08-02 01:56:00,65.7,63.9,30.22,SSW,207,0.0,3.0,94,0.00,,,0.00,Wunderground v.1.15,2014-08-02 05:56:00,
2014-08-02 01:57:00,65.7,63.9,30.22,SSW,209,0.0,3.0,94,0.00,,,0.00,Wunderground v.1.15,2014-08-02 05:57:00,
2014-08-02 01:58:00,65.7,63.9,30.22,SSW,209,0.0,3.0,94,0.00,,,0.00,Wunderground v.1.15,2014-08-02 05:58:00,
2014-08-02 02:01:00,65.7,63.9,30.22,SSW,208,0.0,0.0,94,0.00,,,0.00,Wunderground v.1.15,2014-08-02 06:01:00,
2014-08-02 02:02:00,65.7,63.9,30.22,SSE,168,0.0,0.0,94,0.00,,,0.00,Wunderground v.1.15,2014-08-02 06:02:00,
2014-08-02 02:03:00,65.7,63.9,30.22,SSE,167,0.0,0.0,94,0.00,,,0.00,Wunderground v.1.15,2014-08-02 06:03:00,
2014-08-02 02:06:00,65.7,63.9,30.22,South,182,0.0,0.0,94,0.00,,,0.00,Wunderground v.1.15,2014-08-02 06:06:00,
2014-08-02 02:07:00,65.7,63.9,30.22,South,181,0.0,0.0,94,0.00,,,0.00,Wunderground v.1.15,2014-08-02 06:07:00,
2014-08-02 02:08:00,65.7,63.9,30.22,South,182,0.0,0.0,94,0.00,,,0.00,Wunderground v.1.15,2014-08-02 06:08:00,
2014-08-02 02:11:00,65.6,63.8,30.21,South,188,0.0,0.0,94,0.00,,,0.00,Wunderground v.1.15,2014-08-02 06:11:00,
2014-08-02 02:12:00,65.6,63.8,30.21,South,188,0.0,0.0,94,0.00,,,0.00,Wunderground v.1.15,2014-08-02 06:12:00,
2014-08-02 02:13:00,65.6,63.8,30.21,South,188,0.0,0.0,94,0.00,,,0.00,Wunderground v.1.15,2014-08-02 06:13:00,
2014-08-02 02:17:00,65.6,63.8,30.21,SW,235,0.0,1.0,94,0.00,,,0.00,Wunderground v.1.15,2014-08-02 06:17:00,
2014-08-02 02:18:00,65.6,63.8,30.21,SW,235,0.0,1.0,94,0.00,,,0.00,Wunderground v.1.15,2014-08-02 06:18:00,
2014-08-02 02:22:00,65.6,63.8,30.21,WSW,239,0.0,1.0,94,0.00,,,0.00,Wunderground v.1.15,2014-08-02 06:22:00,
2014-08-02 02:23:00,65.6,63.8,30.21,WSW,239,0.0,1.0,94,0.00,,,0.00,Wunderground v.1.15,2014-08-02 06:23:00,
2014-08-02 02:24:00,65.6,63.8,30.21,WSW,239,0.0,1.0,94,0.00,,,0.00,Wunderground v.1.15,2014-08-02 06:24:00,
2014-08-02 02:27:00,65.6,63.8,30.21,WSW,240,0.0,1.0,94,0.00,,,0.00,Wunderground v.1.15,2014-08-02 06:27:00,
2014-08-02 02:28:00,65.6,63.8,30.21,WSW,240,0.0,1.0,94,0.00,,,0.00,Wunderground v.1.15,2014-08-02 06:28:00,
2014-08-02 02:29:00,65.6,63.8,30.21,WSW,240,0.0,1.0,94,0.00,,,0.00,Wunderground v.1.15,2014-08-02 06:29:00,
2014-08-02 02:32:00,65.4,63.6,30.21,WSW,240,0.0,1.0,94,0.00,,,0.00,Wunderground v.1.15,2014-08-02 06:32:00,
2014-08-02 02:33:00,65.3,63.5,30.21,WSW,240,0.0,1.0,94,0.00,,,0.00,Wunderground v.1.15,2014-08-02 06:33:00,
2014-08-02 02:34:00,65.3,63.5,30.21,WSW,239,0.0,1.0,94,0.00,,,0.00,Wunderground v.1.15,2014-08-02 06:34:00,
2014-08-02 02:37:00,65.2,63.7,30.21,WSW,239,0.0,1.0,95,0.00,,,0.00,Wunderground v.1.15,2014-08-02 06:37:00,
2014-08-02 02:38:00,65.3,63.8,30.21,WSW,239,0.0,1.0,95,0.00,,,0.00,Wunderground v.1.15,2014-08-02 06:38:00,
2014-08-02 02:39:00,65.2,63.7,30.21,WSW,239,0.0,1.0,95,0.00,,,0.00,Wunderground v.1.15,2014-08-02 06:39:00,
2014-08-02 02:40:00,65.2,63.7,30.21,WSW,239,0.0,1.0,95,0.00,,,0.00,Wunderground v.1.15,2014-08-02 06:40:00,
2014-08-02 02:42:00,65.1,63.6,30.20,SW,232,0.0,1.0,95,0.00,,,0.00,Wunderground v.1.15,2014-08-02 06:42:00,
2014-08-02 02:43:00,65.1,63.6,30.21,SW,232,0.0,1.0,95,0.00,,,0.00,Wunderground v.1.15,2014-08-02 06:43:00,
2014-08-02 02:44:00,65.1,63.6,30.21,SW,232,0.0,1.0,95,0.00,,,0.00,Wunderground v.1.15,2014-08-02 06:44:00,
2014-08-02 02:45:00,65.1,63.6,30.21,SW,232,0.0,1.0,95,0.00,,,0.00,Wunderground v.1.15,2014-08-02 06:45:00,
2014-08-02 02:47:00,65.1,63.6,30.21,SW,232,0.0,1.0,95,0.00,,,0.00,Wunderground v.1.15,2014-08-02 06:47:00,
2014-08-02 02:48:00,65.1,63.6,30.21,SW,232,0.0,1.0,95,0.00,,,0.00,Wunderground v.1.15,2014-08-02 06:48:00,
2014-08-02 02:49:00,65.0,63.5,30.21,SW,232,0.0,1.0,95,0.00,,,0.00,Wunderground v.1.15,2014-08-02 06:49:00,
2014-08-02 02:50:00,65.0,63.5,30.21,SSE,158,0.0,1.0,95,0.00,,,0.00,Wunderground v.1.15,2014-08-02 06:50:00,
2014-08-02 02:52:00,65.0,63.8,30.21,SSE,158,0.0,0.0,96,0.00,,,0.00,Wunderground v.1.15,2014-08-02 06:52:00,
2014-08-02 02:54:00,65.0,63.5,30.21,SSE,158,0.0,0.0,95,0.00,,,0.00,Wunderground v.1.15,2014-08-02 06:54:00,
2014-08-02 02:55:00,65.0,63.5,30.21,SE,136,0.0,1.0,95,0.00,,,0.00,Wunderground v.1.15,2014-08-02 06:55:00,
2014-08-02 02:57:00,65.0,63.5,30.20,SE,137,0.0,1.0,95,0.00,,,0.00,Wunderground v.1.15,2014-08-02 06:57:00,
2014-08-02 02:58:00,65.0,63.5,30.20,SE,137,0.0,1.0,95,0.00,,,0.00,Wunderground v.1.15,2014-08-02 06:58:00,
2014-08-02 02:59:00,65.0,63.5,30.20,SE,137,0.0,1.0,95,0.00,,,0.00,Wunderground v.1.15,2014-08-02 06:59:00,
2014-08-02 03:01:00,65.0,63.5,30.20,SE,137,0.0,0.0,95,0.00,,,0.00,Wunderground v.1.15,2014-08-02 07:01:00,
2014-08-02 03:02:00,65.0,63.5,30.20,SE,137,0.0,0.0,95,0.00,,,0.00,Wunderground v.1.15,2014-08-02 07:02:00,
2014-08-02 03:03:00,65.0,63.8,30.20,SE,137,0.0,0.0,96,0.00,,,0.00,Wunderground v.1.15,2014-08-02 07:03:00,
2014-08-02 03:05:00,64.9,63.7,30.20,SE,137,0.0,1.0,96,0.00,,,0.00,Wunderground v.1.15,2014-08-02 07:05:00,